Terminal Aerodrome Forecast
Issued by NWS

Home | Current Version | Previous Version | Text Only | Print | Product List | Glossary On
Versions: 1 2 3 4 5 6 7 8 9 10 11 12 13 14 15 16 17 18 19 20 21
000
FTUS43 KDLH 182300
TAFBRD
TAF
KBRD 182335Z 1900/1924 15008KT P6SM SCT250
     FM190400 16010KT P6SM BKN250 WS020/19040KT
     FM190700 18012KT P6SM SCT100 BKN200 WS020/20050KT
     FM191200 19014G22KT P6SM VCSH SCT015 BKN040
     FM191500 19014G25KT P6SM -SHRA OVC025
     FM192000 19010G20KT P6SM VCSH BKN030=

USA.gov is the U.S. government's official web portal to all federal, state and local government web resources and services.